Total_Precipitation_Accumulation
1.47 1.38 1.29 1.25 1.11 1.04 1.02 1.10 1.10 0.95 0.85 0.76 0.64 0.52 0.49 0.49 0.47 0.50 0.49 0.50 0.61 0.86 1.19 1.35 1.33 1.25 1.21 1.27 1.24 1.15 1.08 0.97 0.89 0.86 0.90 0.93 0.90 0.90 0.93 0.91 0.90 0.90 0.92
1.67 1.59 1.42 1.34 1.23 1.13 1.09 1.14 1.18 1.08 1.00 0.88 0.77 0.65 0.58 0.57 0.50 0.48 0.50 0.54 0.56 0.68 0.99 1.34 1.51 1.55 1.54 1.58 1.51 1.37 1.21 1.09 1.02 0.96 0.93 0.97 0.94 0.95 1.00 0.98 0.96 0.94 0.94
1.86 1.81 1.67 1.45 1.32 1.29 1.27 1.26 1.30 1.30 1.19 1.02 0.90 0.83 0.74 0.66 0.58 0.54 0.54 0.55 0.55 0.54 0.72 1.09 1.42 1.54 1.63 1.70 1.73 1.65 1.45 1.26 1.13 1.04 0.98 0.99 0.99 0.96 0.95 1.01 1.05 1.05 1.06
2.01 2.07 1.89 1.71 1.57 1.53 1.50 1.43 1.33 1.25 1.18 1.06 0.95 0.88 0.82 0.77 0.69 0.67 0.67 0.61 0.57 0.50 0.56 0.76 1.00 1.26 1.49 1.58 1.75 1.90 1.71 1.50 1.28 1.12 1.08 1.11 1.13 1.07 1.05 1.08 1.10 1.10 1.11
2.23 2.23 2.13 1.96 1.88 1.79 1.74 1.66 1.51 1.33 1.21 1.09 1.01 1.00 0.95 0.88 0.82 0.76 0.70 0.64 0.61 0.59 0.58 0.59 0.66 0.83 1.06 1.30 1.55 1.81 1.88 1.74 1.50 1.36 1.23 1.17 1.15 1.14 1.18 1.21 1.22 1.21 1.25
2.62 2.44 2.40 2.30 2.20 2.04 1.93 1.92 1.79 1.55 1.36 1.29 1.23 1.13 1.04 0.96 0.94 0.88 0.79 0.72 0.68 0.68 0.71 0.70 0.70 0.71 0.79 0.99 1.33 1.65 1.90 1.99 1.81 1.55 1.39 1.28 1.27 1.27 1.32 1.40 1.44 1.49 1.51
2.91 2.75 2.56 2.57 2.50 2.28 2.04 2.04 2.06 1.85 1.66 1.61 1.57 1.35 1.17 1.04 0.98 0.90 0.92 0.90 0.81 0.74 0.77 0.83 0.87 0.81 0.69 0.73 0.97 1.23 1.52 1.78 1.91 1.82 1.60 1.47 1.45 1.49 1.58 1.67 1.75 1.76 1.75
3.13 2.93 2.75 2.66 2.63 2.57 2.32 2.14 2.20 2.13 1.95 1.89 1.91 1.86 1.65 1.44 1.14 0.96 0.93 0.92 0.89 0.88 0.82 0.80 0.84 0.85 0.81 0.71 0.72 0.85 1.02 1.31 1.67 1.96 2.03 1.89 1.81 1.82 1.90 2.01 2.10 2.14 2.12
3.38 3.15 2.92 2.86 2.78 2.77 2.67 2.47 2.35 2.31 2.24 2.12 2.10 2.28 2.07 1.71 1.32 1.10 1.02 0.98 0.94 0.97 0.96 0.91 0.86 0.85 0.85 0.79 0.76 0.77 0.82 1.01 1.39 1.81 2.16 2.27 2.24 2.27 2.43 2.56 2.60 2.66 2.60
3.46 3.41 3.21 3.00 2.89 2.84 2.79 2.84 2.83 2.68 2.55 2.35 2.18 2.04 1.96 1.77 1.69 1.46 1.19 1.14 1.09 1.02 1.05 1.03 0.97 0.94 0.90 0.89 0.90 0.90 0.93 1.01 1.30 1.78 2.20 2.47 2.60 2.80 3.08 3.22 3.21 3.20 3.05
3.32 3.45 3.38 3.18 2.88 2.70 2.61 2.68 2.78 2.84 2.71 2.47 2.29 2.14 2.00 1.76 1.65 1.68 1.48 1.30 1.28 1.14 1.09 1.12 1.13 1.13 1.14 1.13 1.08 1.12 1.18 1.20 1.46 1.90 2.34 2.75 3.07 3.33 3.60 3.77 3.77 3.67 3.53
3.18 3.25 3.27 3.16 2.97 2.74 2.56 2.56 2.69 2.78 2.82 2.73 2.50 2.28 2.16 1.99 1.72 1.71 1.65 1.48 1.49 1.36 1.22 1.20 1.24 1.30 1.31 1.36 1.36 1.46 1.41 1.47 1.63 1.92 2.39 2.81 3.12 3.33 3.55 3.89 4.07 4.02 3.94
3.05 3.13 3.26 3.16 3.03 2.82 2.69 2.59 2.60 2.59 2.62 2.66 2.60 2.41 2.19 2.01 1.85 1.90 1.93 1.80 1.68 1.53 1.51 1.41 1.31 1.29 1.32 1.37 1.46 1.64 1.51 1.51 1.55 1.74 2.17 2.59 2.70 2.79 2.94 3.20 3.56 3.78 3.83
2.94 2.96 3.14 3.17 3.09 2.95 2.82 2.69 2.58 2.49 2.47 2.46 2.40 2.32 2.19 1.98 1.88 1.91 2.03 2.19 2.17 1.84 1.63 1.55 1.43 1.38 1.38 1.39 1.50 1.67 1.48 1.65 1.59 1.67 1.89 2.12 2.09 2.04 2.16 2.40 2.64 2.95 3.20
2.77 2.75 2.85 2.93 2.94 2.90 2.85 2.76 2.64 2.44 2.34 2.30 2.21 2.12 2.07 1.94 1.84 1.82 1.90 2.11 2.47 2.39 1.92 1.56 1.51 1.47 1.47 1.45 1.58 1.48 1.37 1.65 1.67 1.62 1.64 1.69 1.67 1.67 1.77 1.93 2.12 2.39 2.60
2.61 2.53 2.55 2.63 2.70 2.68 2.68 2.73 2.62 2.45 2.38 2.25 2.13 2.06 1.98 1.90 1.88 1.88 1.93 2.00 2.17 2.34 2.12 1.58 1.41 1.40 1.46 1.48 1.64 1.45 1.40 1.66 1.61 1.57 1.52 1.48 1.50 1.55 1.65 1.80 1.89 2.05 2.30
2.43 2.48 2.43 2.47 2.55 2.59 2.56 2.58 2.59 2.49 2.37 2.24 2.12 2.03 1.94 1.85 1.88 1.86 1.90 1.97 2.02 2.10 2.08 1.59 1.35 1.34 1.46 1.49 1.55 1.46 1.41 1.37 1.31 1.44 1.40 1.39 1.37 1.41 1.53 1.67 1.79 1.88 2.04
2.16 2.21 2.25 2.30 2.31 2.36 2.40 2.42 2.41 2.39 2.36 2.25 2.16 2.12 2.02 1.97 2.05 2.04 2.06 2.05 2.01 1.98 1.98 1.76 1.45 1.36 1.36 1.32 1.30 1.34 1.35 1.35 1.25 1.42 1.39 1.34 1.38 1.43 1.49 1.54 1.61 1.74 1.84
2.02 2.08 2.08 2.16 2.19 2.16 2.21 2.26 2.27 2.29 2.30 2.26 2.22 2.21 2.14 2.14 2.18 2.14 2.09 2.05 1.97 1.91 1.88 1.82 1.61 1.44 1.43 1.37 1.37 1.35 1.32 1.31 1.23 1.34 1.39 1.36 1.39 1.43 1.46 1.52 1.56 1.58 1.63
1.80 1.86 1.90 1.92 1.98 2.01 2.06 2.14 2.22 2.24 2.25 2.25 2.23 2.20 2.14 2.12 2.10 2.05 2.00 1.93 1.91 1.96 1.96 1.95 1.80 1.63 1.55 1.51 1.53 1.57 1.53 1.39 1.32 1.20 1.29 1.28 1.31 1.35 1.37 1.39 1.42 1.43 1.46
1.71 1.75 1.78 1.82 1.83 1.87 1.95 2.05 2.16 2.24 2.26 2.27 2.26 2.19 2.07 2.03 1.97 1.95 1.93 1.88 1.90 2.03 2.09 2.09 1.95 1.78 1.65 1.63 1.65 1.56 1.58 1.52 1.45 1.31 1.27 1.21 1.16 1.13 1.15 1.25 1.35 1.45 1.52
1.72 1.75 1.82 1.86 1.88 1.92 2.16 2.27 2.24 2.23 2.22 2.18 2.09 1.97 1.90 1.91 1.85 1.91 1.94 1.93 2.01 2.17 2.27 2.19 1.99 1.75 1.50 1.42 1.50 1.65 1.79 1.86 1.77 1.39 1.32 1.35 1.26 1.25 1.16 1.14 1.37 1.50 1.61
1.84 1.93 1.96 2.03 2.04 2.06 2.15 2.05 2.09 2.07 2.09 2.06 1.96 1.83 1.75 1.65 1.66 1.54 1.68 1.83 1.88 1.98 2.02 1.95 1.86 1.57 1.42 1.38 1.64 1.92 1.92 1.84 1.58 1.33 1.42 1.57 1.43 1.37 1.26 1.33 1.54 1.49 1.60
1.82 1.97 2.03 2.07 2.06 2.06 2.08 1.96 1.94 1.77 1.74 1.77 1.76 1.73 1.67 1.61 1.56 1.56 1.61 1.70 1.60 1.55 1.54 1.45 1.44 1.43 1.42 1.45 1.69 1.99 2.01 1.99 1.73 1.51 1.50 1.70 1.52 1.44 1.33 1.37 1.56 1.47 1.51
1.68 1.76 1.84 1.87 1.84 1.84 1.87 1.79 1.81 1.68 1.62 1.56 1.51 1.54 1.59 1.53 1.65 1.80 1.77 1.72 1.53 1.37 1.38 1.46 1.53 1.53 1.62 1.65 1.76 2.15 2.35 2.41 2.15 1.71 1.48 1.50 1.38 1.37 1.43 1.45 1.52 1.59 1.54
1.52 1.49 1.51 1.49 1.48 1.49 1.60 1.60 1.63 1.54 1.53 1.46 1.43 1.46 1.61 1.56 1.69 1.83 1.73 1.71 1.61 1.38 1.29 1.30 1.29 1.29 1.27 1.36 1.62 1.86 2.33 2.69 2.34 1.90 1.41 1.46 1.48 1.59 1.92 1.59 1.47 1.50 1.53